Regional Weather Roundup
Issued by NWS

Home | Current Version | Previous Version | Text Only | Print | Product List | Glossary On
Versions: 1 2 3 4 5 6 7 8 9 10 11 12 13 14 15 16 17 18 19 20 21 22 23 24 25 26 27 28 29 30 31 32 33 34 35 36 37 38 39 40 41 42 43 44 45 46 47 48 49 50
000
ASUS43 KOAX 260110
RWRNE

WEATHER ROUNDUP FOR NEBRASKA
NATIONAL WEATHER SERVICE OMAHA NE
800 PM CDT TUE APR 25 2017

NOTES: SATELLITE DATA IS BEING USED TO AUGMENT CLOUD COVER ABOVE
       12000 FEET.
       "FAIR" INDICATES FEW OR NO CLOUDS BELOW 12,000 FEET WITH NO
       SIGNIFICANT WEATHER AND/OR OBSTRUCTIONS TO VISIBILITY.

  * THESE STATIONS DO NOT REPORT WEATHER SUCH AS RAIN...SNOW OR FOG.

NEZ001>004-019>022-054>056-260200-
NEBRASKA PANHANDLE

CITY           SKY/WX    TMP DP  RH WIND       PRES   REMARKS
SCOTTSBLUFF    CLOUDY    36  29  75 NE17      29.77R WCI  26
ALLIANCE       CLOUDY    33  28  81 NE18      29.76R WCI  22
CHADRON        LGT SNOW  30  28  92 NE12      29.84R VSB 1   WCI  20
KIMBALL        CLOUDY    37  37  99 N16G24    29.73R FOG     WCI  28
SIDNEY         CLOUDY    36  33  89 NE21      29.74R WCI  25
$$

NEZ057>060-069>072-079>082-260200-
SOUTHWEST NEBRASKA

CITY           SKY/WX    TMP DP  RH WIND       PRES   REMARKS
NORTH PLATTE   CLOUDY    39  33  79 N18G28    29.71R WCI  30
IMPERIAL       CLOUDY    42  35  76 NE18      29.70R
LEXINGTON      CLOUDY    39  34  82 N18       29.68R WCI  29
MCCOOK         CLOUDY    44  38  79 N14       29.69R
OGALLALA       CLOUDY    42  34  75 N14       29.74R
$$

NEZ005>010-023>029-035>040-094-260200-
NORTH CENTRAL NEBRASKA

CITY           SKY/WX    TMP DP  RH WIND       PRES   REMARKS
VALENTINE      CLOUDY    34  27  75 N16       29.78R WCI  24
AINSWORTH      CLOUDY    33  32  95 N17G23    29.76R WCI  22
BROKEN BOW     CLOUDY    37  33  85 N22       29.69R WCI  26
O`NEILL        CLOUDY    37  33  87 N20G28    29.71S WCI  26
ORD            CLOUDY    38  34  85 N14       29.68R WCI  30
THEDFORD       CLOUDY    36  31  85 N14G22    29.74R WCI  27
$$

NEZ041-046>049-061>064-073>077-083>087-260200-
SOUTH CENTRAL NEBRASKA

CITY           SKY/WX    TMP DP  RH WIND       PRES   REMARKS
GRAND ISLAND   CLOUDY    39  37  92 N20       29.66R WCI  29
AURORA         CLOUDY    40  37  89 N18G24    29.64R WCI  31
HASTINGS       CLOUDY    40  36  86 N17       29.66R WCI  31
HEBRON         CLOUDY    43  37  79 N16G25    29.62R
HOLDREGE       CLOUDY    39  35  86 N17       29.67R WCI  30
KEARNEY *      CLOUDY    39  34  81 N17G25    29.67R WCI  30
YORK           CLOUDY    41  37  87 N17G29    29.62R
$$

NEZ011>018-030>034-042>045-260200-
NORTHEAST NEBRASKA

CITY           SKY/WX    TMP DP  RH WIND       PRES   REMARKS
NORFOLK        CLOUDY    38  35  89 NW21G28   29.62F WCI  28
ALBION         CLOUDY    39  35  85 N16G29    29.66R WCI  30
BLAIR          LGT RAIN  43  42  94 NW17      29.56R
FREMONT        DRIZZLE   43  42  98 NW12G18   29.60R
TEKAMAH        LGT RAIN  43  41  93 N17       29.59R FOG
WAYNE          RAIN      39  38  99 NW15G25   29.64S WCI  30
$$

NEZ050>053-065>068-078-088>093-260200-
SOUTHEAST NEBRASKA

CITY           SKY/WX    TMP DP  RH WIND       PRES   REMARKS
LINCOLN        LGT RAIN  44  42  93 N18       29.60R FOG
OMAHA EPPLEY   LGT RAIN  45  40  82 N20G29    29.56R
BEATRICE       CLOUDY    44  43  96 N20       29.59R FOG
FALLS CITY     CLOUDY    51  44  77 NW17G24   29.51R
NEBRASKA CITY  CLOUDY    47  39  75 N16G24    29.55R
PLATTSMOUTH    DRIZZLE   45  41  87 NW17      29.56R
$$

NEZ044-045-051>053-067-260200-
OMAHA AREA

CITY           SKY/WX    TMP DP  RH WIND       PRES   REMARKS
OMAHA EPPLEY   LGT RAIN  45  40  82 N20G29    29.56R
BLAIR          LGT RAIN  43  42  94 NW17      29.56R
FREMONT        DRIZZLE   43  42  98 NW12G18   29.60R
MILLARD        DRIZZLE   46  44  91 NW12      29.58R
OFFUTT AFB     LGT RAIN  45  43  93 NW13      29.56R
PLATTSMOUTH    DRIZZLE   45  41  87 NW17      29.56R
WAHOO          CLOUDY    44  41  91 N18G26    29.59R FOG
$$




USA.gov is the U.S. government's official web portal to all federal, state and local government web resources and services.